RH
9 9 10 10 10 11 11 11 11 12 14 16 18 18 18 18 19 20 20 21 20 21 21 20 21 28 38 35 28 25 24 33 57 71 77 84 80 82 83 70 72 85 88 89 89 77 67 56 51 56 54 53
11 10 10 11 11 12 11 12 12 13 16 17 19 19 19 20 20 20 21 21 21 22 21 21 21 21 22 19 16 14 14 19 39 60 72 81 75 73 83 75 69 76 83 88 86 76 64 52 48 49 50 52
11 11 11 12 11 12 12 12 13 14 17 18 19 19 19 20 20 20 21 22 22 22 21 22 22 21 21 19 17 13 13 13 20 38 54 71 66 60 76 78 70 72 76 83 83 71 57 51 47 44 48 52
11 12 12 12 13 12 12 13 14 16 18 19 19 19 20 20 20 21 21 22 22 22 22 23 23 23 22 20 19 15 13 12 12 17 27 50 55 44 56 63 59 60 64 73 77 65 56 55 50 46 49 52
10 11 13 12 13 12 12 13 14 17 18 19 19 19 20 20 21 21 22 23 23 23 23 23 24 24 23 22 20 17 14 12 11 12 13 27 38 31 38 46 44 46 52 63 70 65 62 60 54 49 48 50
11 11 13 13 13 13 12 13 15 17 19 19 19 20 20 20 21 22 22 23 23 23 24 24 25 25 25 24 22 20 16 13 11 12 12 15 23 26 30 35 37 40 47 56 64 66 65 64 59 54 50 50
11 12 13 13 14 14 14 14 15 17 18 19 19 19 20 21 21 22 23 23 24 24 25 25 26 26 26 25 25 23 17 14 12 11 13 14 18 22 25 29 34 38 44 53 60 63 65 65 61 58 55 52
11 13 13 13 14 14 15 15 16 17 17 18 19 20 20 21 22 23 23 23 24 25 26 27 27 27 27 27 26 24 21 17 14 13 12 13 15 18 21 24 30 35 40 48 55 60 64 65 63 60 58 55
12 13 14 13 14 15 15 15 16 16 16 17 17 19 20 21 21 23 23 24 25 26 27 28 28 28 28 29 28 27 24 20 16 15 13 12 13 14 18 22 27 34 38 44 49 57 63 65 65 61 58 55
13 13 14 13 14 14 15 15 16 16 16 16 16 17 18 20 21 22 23 24 25 26 27 28 29 30 30 30 29 29 27 22 18 16 14 12 13 12 15 19 23 28 31 34 38 46 55 61 63 58 52 50
13 13 13 13 13 14 15 15 15 15 16 15 15 16 17 18 19 21 22 23 24 25 26 27 29 29 31 31 30 29 28 25 20 18 17 14 14 13 13 15 16 18 21 23 26 31 39 48 55 55 50 47
12 12 12 12 12 13 14 14 14 15 15 15 15 15 15 17 17 19 21 22 23 24 25 26 27 29 30 31 31 29 27 26 25 24 22 19 17 15 14 14 15 16 17 19 22 23 26 34 43 52 51 49
12 12 12 12 12 13 13 13 14 14 14 14 14 14 14 15 16 18 19 21 22 23 24 24 25 27 28 29 31 30 29 29 29 28 27 25 21 17 15 14 15 16 18 20 22 22 22 25 31 40 45 46
13 13 12 12 13 12 12 12 12 13 14 14 14 14 14 14 15 16 17 19 20 21 22 23 24 24 26 27 28 29 30 30 30 29 28 27 24 21 18 16 16 16 18 20 23 23 20 22 25 29 36 41
14 14 13 13 14 13 12 12 12 12 13 14 14 13 14 14 15 15 16 17 18 20 20 22 23 23 24 24 25 26 28 29 28 28 27 26 25 23 21 20 18 17 19 20 22 23 20 21 22 25 33 39
15 15 14 14 14 14 13 13 13 13 14 14 14 14 15 14 15 15 16 17 17 18 19 20 21 22 22 23 23 24 25 26 26 27 27 26 25 24 25 25 23 22 22 24 25 24 22 20 19 22 28 37
17 16 16 16 15 15 14 15 15 14 15 16 15 15 16 15 15 15 15 16 16 16 17 18 19 20 21 22 22 23 23 24 25 26 26 26 26 26 26 26 27 27 26 28 29 29 27 25 22 20 20 28
19 18 18 17 17 16 15 16 16 17 17 17 18 18 17 17 16 15 15 15 15 16 16 17 18 19 20 21 22 23 23 23 24 25 25 25 25 25 26 26 27 27 27 28 28 29 29 29 28 23 20 20
21 19 19 19 19 19 18 19 18 19 19 18 21 21 19 18 17 17 16 16 15 16 16 17 17 18 19 19 21 22 22 24 24 24 25 25 25 24 25 25 26 27 27 27 26 27 28 28 29 27 25 24
22 21 21 21 21 22 21 21 21 21 21 22 23 22 21 19 19 19 18 18 18 17 18 18 17 18 19 19 20 21 22 24 24 24 24 24 26 25 24 25 25 26 27 27 26 25 26 26 27 28 28 29
25 24 24 24 25 25 24 24 24 23 23 24 23 23 22 21 22 21 20 21 20 20 21 20 20 20 21 21 21 22 23 24 25 25 25 25 27 27 27 27 27 28 28 28 27 26 27 27 26 27 27 28
31 31 30 30 30 28 28 27 25 27 32 35 36 36 34 33 33 28 23 22 22 22 23 23 23 23 24 25 25 25 26 26 27 27 28 27 28 29 29 30 31 32 32 30 30 29 28 28 28 27 26 27
36 37 37 36 36 34 33 32 33 39 46 50 52 52 48 46 44 39 32 28 26 24 24 25 25 26 27 28 28 28 28 29 29 29 31 30 31 32 32 33 34 35 37 37 34 34 32 30 30 29 28 27
40 40 41 40 41 40 36 36 40 48 54 57 58 57 54 51 48 45 42 38 32 28 26 27 27 28 29 29 29 29 29 30 31 32 33 33 34 34 35 36 35 38 44 44 39 38 36 34 33 32 29 29
41 40 40 40 41 39 37 39 45 52 55 56 56 55 54 52 50 49 46 43 39 34 31 30 29 30 30 30 30 30 31 32 33 35 35 36 37 38 40 39 36 41 47 48 51 50 47 42 37 34 34 39
39 39 39 39 38 38 39 42 45 48 50 51 51 51 50 49 49 49 47 45 43 39 36 34 33 33 33 32 33 33 34 35 35 36 37 38 40 41 44 43 40 44 49 52 58 65 67 59 46 39 43 53
37 36 37 39 40 41 44 45 46 47 49 50 49 48 48 46 47 47 46 46 44 40 38 37 37 36 36 36 36 37 37 38 38 38 40 41 43 45 46 46 44 47 52 54 56 67 74 70 63 57 56 61
35 38 42 45 45 46 49 49 49 51 50 48 46 45 45 43 43 44 45 46 43 40 39 38 38 39 39 39 39 39 40 40 41 41 42 43 45 49 52 53 50 48 52 54 56 68 75 75 80 75 69 70
39 46 50 51 51 52 54 53 53 53 49 45 44 41 39 38 40 43 45 45 42 40 39 39 40 41 41 42 42 42 42 43 43 43 44 45 47 50 56 59 58 54 54 53 54 65 70 70 79 79 75 78
44 48 51 52 53 53 55 54 51 47 40 36 37 36 35 37 41 44 44 43 41 40 40 40 41 43 44 45 46 46 47 46 46 47 47 48 49 51 57 64 66 63 59 57 54 56 59 58 66 77 82 84
47 49 51 52 52 52 53 51 43 36 33 33 35 39 40 41 41 41 41 40 40 40 40 41 42 45 47 49 51 52 52 52 51 51 52 52 53 54 59 67 72 69 65 64 60 57 59 59 60 72 84 90
Wind_Speed
5 5 6 6 5 5 5 5 6 6 6 6 6 8 9 8 8 9 10 12 13 15 16 17 17 17 17 17 17 17 17 17 18 19 19 19 19 18 18 18 17 17 17 16 16 18 20 22 21 18 20 21
4 5 5 5 5 4 4 5 5 5 5 5 6 7 7 6 7 8 10 11 13 14 15 16 17 18 17 17 17 17 17 16 16 17 18 18 18 16 17 18 18 17 16 16 16 18 21 24 23 20 20 22
4 5 5 5 5 4 4 4 5 5 5 4 5 6 5 5 5 7 9 11 12 13 14 15 16 17 17 17 17 17 16 15 15 15 15 16 16 15 15 16 17 17 17 16 15 18 22 25 26 22 21 22
5 5 5 5 5 5 4 4 4 4 4 4 4 4 3 3 4 6 8 9 10 12 13 14 15 16 17 16 16 16 16 15 15 14 13 14 15 14 14 15 15 16 17 16 16 19 22 25 26 25 22 22
6 5 5 5 4 4 4 3 3 3 3 3 3 3 2 2 3 5 7 8 9 10 11 12 13 14 15 16 16 16 15 15 14 14 13 12 13 13 13 13 14 16 16 16 16 19 21 23 26 26 24 23
6 5 5 4 3 4 3 3 3 3 3 3 3 2 1 2 2 3 5 7 7 8 9 11 12 13 14 14 15 15 15 15 14 14 13 12 12 12 12 12 14 15 16 15 16 18 20 22 25 26 25 24
6 5 5 4 3 3 3 3 3 3 3 2 2 1 1 3 3 3 4 5 6 7 8 9 10 11 12 13 14 14 14 14 14 13 13 13 12 11 12 12 13 14 15 15 16 17 19 21 24 25 25 25
6 4 4 4 3 3 4 3 3 4 3 3 1 1 1 3 4 3 3 4 5 6 6 7 8 9 10 11 12 12 13 13 13 13 13 13 13 13 13 13 13 13 14 15 16 17 18 20 23 25 25 25
6 4 4 4 4 4 4 4 4 4 4 3 2 2 2 3 4 4 3 3 4 5 6 7 8 8 9 10 11 11 12 13 13 13 13 14 14 14 14 14 13 13 14 15 16 16 17 19 21 24 25 25
6 5 4 5 5 5 5 5 4 5 5 4 4 4 4 4 5 6 5 4 4 5 6 7 8 8 9 10 10 11 12 13 13 14 14 14 15 15 16 15 15 15 15 15 16 17 17 18 20 23 24 24
7 6 6 6 6 6 6 6 6 6 6 5 6 5 5 5 5 7 6 6 6 6 6 7 8 8 9 9 10 11 12 13 13 14 14 15 15 16 16 17 17 16 16 16 16 16 17 18 20 22 23 23
9 8 8 7 8 8 7 7 7 7 7 6 7 7 7 7 7 7 8 7 7 7 7 7 8 8 9 9 10 11 12 13 14 15 15 15 15 16 16 17 17 17 17 16 16 17 17 17 19 20 21 22
10 9 9 8 9 9 8 8 8 8 8 8 8 8 8 8 8 8 8 8 8 8 8 8 8 9 9 10 10 11 12 13 14 15 15 15 16 16 16 17 17 18 17 17 16 17 17 17 18 20 20 20
10 10 9 9 9 9 9 9 10 9 9 9 9 9 9 9 9 9 9 9 9 9 9 9 9 10 10 10 11 12 12 13 14 15 15 16 16 16 17 17 17 18 18 18 16 17 18 18 19 19 20 20
11 11 10 10 10 10 10 10 11 10 9 10 10 10 10 10 10 10 10 9 9 10 10 10 10 11 11 11 12 12 13 13 13 15 15 15 16 17 17 18 18 18 19 19 18 18 18 19 19 19 19 20
11 11 11 11 11 11 11 11 12 11 10 10 11 11 11 10 10 10 10 10 10 11 11 11 12 12 12 12 12 12 13 13 14 15 15 15 16 17 17 18 18 19 20 21 21 20 20 21 21 20 19 19
12 12 11 11 12 12 12 13 13 12 11 11 12 12 11 10 10 10 10 11 11 12 12 13 13 13 13 12 13 13 13 14 14 15 16 16 16 17 18 18 19 19 20 21 22 22 22 23 22 22 21 20
12 12 12 12 13 14 14 14 13 13 13 13 13 13 12 10 10 10 11 11 12 13 13 13 13 13 13 13 13 13 14 15 15 16 17 17 17 18 19 19 20 20 21 22 23 23 23 24 24 23 23 22
13 13 13 14 14 15 15 14 14 14 14 14 14 14 13 12 11 11 12 12 12 12 13 13 13 13 13 13 14 14 14 14 15 16 17 18 18 19 20 20 21 21 22 23 23 24 23 24 25 24 23 24
14 15 15 15 15 15 16 15 15 15 15 15 15 15 14 13 12 12 13 12 12 12 12 13 13 13 13 14 14 14 14 14 16 17 18 19 19 19 21 21 22 22 23 24 25 25 25 25 25 24 24 25
15 16 16 16 16 16 16 17 17 16 16 17 16 16 16 14 13 14 14 12 12 12 12 13 12 12 13 14 14 15 15 15 16 17 18 19 19 20 20 21 22 22 23 25 26 26 27 26 25 24 26 26
15 16 16 16 16 17 17 18 17 16 16 17 16 16 16 15 14 14 14 13 13 13 13 13 12 12 13 13 14 15 15 15 16 17 18 19 20 20 20 21 21 21 22 24 26 28 27 26 26 26 25 22
15 15 15 16 16 17 18 18 17 16 16 16 15 16 16 16 15 14 14 14 14 14 13 13 13 13 13 14 15 16 16 16 16 17 17 19 20 19 20 21 21 20 21 23 25 26 25 26 27 25 20 18
17 16 17 17 17 18 19 18 17 16 17 17 17 18 17 17 16 15 15 15 15 15 14 14 14 13 13 14 15 16 17 17 17 17 18 19 19 20 20 21 21 19 19 22 23 23 24 27 25 20 18 17
19 19 19 19 19 20 19 18 18 18 18 18 19 19 19 19 18 17 17 16 16 15 15 14 14 14 14 15 15 16 17 17 17 16 17 18 18 19 19 21 21 19 19 18 16 18 21 22 19 17 18 16
21 20 20 20 19 19 18 18 19 20 19 19 19 20 20 20 19 18 18 16 15 14 14 14 15 15 15 15 15 16 16 16 16 16 16 17 18 18 18 20 20 17 14 10 10 13 12 12 12 12 12 10
23 21 20 20 19 19 19 18 19 20 21 21 21 21 21 21 20 19 18 17 16 15 14 14 15 15 15 15 15 16 16 16 16 16 16 16 17 17 17 18 17 14 10 8 11 10 5 4 6 6 5 4
24 22 21 21 20 21 22 21 20 21 23 23 24 23 22 21 20 19 19 17 17 16 16 15 15 16 16 16 16 16 17 17 16 16 15 16 16 17 16 15 14 13 12 10 9 5 2 2 3 3 2 5
24 24 24 23 22 23 24 24 24 24 25 25 25 25 23 21 20 19 19 19 18 18 17 17 17 17 18 18 17 17 17 17 17 16 16 16 17 17 16 15 14 15 15 12 9 5 4 3 2 3 3 9
26 26 27 27 26 26 25 26 27 27 27 26 25 24 21 20 19 20 21 20 20 20 19 19 18 19 19 19 19 18 18 19 18 17 16 16 17 18 17 16 16 18 17 16 15 11 10 9 8 7 5 6
28 29 30 30 30 29 28 29 30 28 25 24 23 22 21 21 20 21 21 21 21 21 21 21 21 21 21 21 20 19 19 19 18 17 17 16 17 18 17 16 17 19 19 16 13 9 10 14 15 14 9 4
Wind_Direction
119 119 111 106 101 98 99 96 95 94 94 88 77 74 75 74 71 68 63 56 52 49 45 43 41 38 31 26 25 24 23 23 23 17 14 12 10 11 10 10 13 12 9 10 10 7 7 6 4 1 358 360
120 117 110 109 108 105 105 101 98 97 96 92 79 73 73 75 74 68 62 56 52 49 45 42 39 37 34 29 27 24 22 21 22 18 13 10 6 6 6 5 9 9 7 6 5 4 4 4 3 1 0 2
138 130 125 124 127 122 115 112 108 107 106 98 83 75 72 72 71 66 60 56 52 49 46 42 37 34 33 29 26 23 20 18 18 17 14 10 2 2 3 0 4 5 4 3 0 359 0 2 2 1 1 2
167 155 147 143 149 140 128 128 124 126 124 112 96 82 73 68 65 63 60 56 51 49 46 40 35 31 30 28 25 22 19 15 14 14 13 11 2 359 4 1 4 6 3 0 357 354 356 358 359 1 1 1
190 175 164 157 167 154 144 149 143 152 147 129 112 91 64 49 50 57 57 55 50 47 44 38 33 28 27 25 22 20 17 14 11 10 9 11 5 0 5 6 7 9 4 358 354 350 351 353 355 359 359 359
204 191 178 163 174 170 165 173 171 182 177 155 127 103 25 349 11 43 51 51 46 41 39 33 29 25 23 22 19 17 14 10 9 8 6 7 7 4 4 5 7 8 4 358 352 348 347 348 351 355 357 358
213 201 191 174 182 189 188 194 199 207 207 195 149 128 336 321 327 6 39 43 38 32 31 25 23 19 17 17 16 15 11 6 5 5 3 3 3 2 3 5 6 6 5 0 352 349 347 346 348 351 353 355
217 208 205 193 193 211 215 217 221 226 229 222 210 210 272 303 311 331 10 27 28 20 16 13 12 10 10 10 10 11 8 3 1 2 1 1 360 358 359 1 3 3 3 1 353 349 347 345 345 347 350 351
221 215 214 211 209 224 229 232 238 241 243 243 250 255 268 288 303 312 329 353 2 360 357 357 356 359 1 2 3 4 5 0 357 357 357 358 359 357 355 353 356 358 358 357 353 348 346 344 342 344 346 347
224 218 216 224 224 230 237 240 248 250 251 253 256 261 270 279 291 296 303 314 326 337 340 344 344 348 351 353 355 356 0 358 353 354 355 355 357 357 353 350 349 352 353 353 351 347 346 344 341 341 343 345
225 221 218 225 229 235 243 244 248 253 255 256 258 261 265 269 278 285 292 300 310 319 326 331 334 337 342 346 349 351 355 354 350 350 353 352 353 353 352 349 346 347 349 348 347 345 344 342 340 339 339 341
226 223 221 225 230 235 241 243 246 252 257 259 260 263 265 267 271 281 290 295 301 308 315 321 324 329 335 339 344 348 349 349 347 347 348 348 348 349 348 348 345 343 343 343 343 340 340 339 336 334 333 335
230 229 227 229 234 236 239 243 246 251 258 261 262 264 267 269 270 278 286 292 296 301 307 312 316 323 328 334 338 341 343 342 342 342 344 343 344 346 344 345 343 340 340 338 338 336 337 337 334 330 326 328
235 234 232 232 236 240 243 246 250 251 254 261 262 263 267 270 272 277 283 288 293 298 302 307 312 318 323 330 331 332 333 335 336 336 338 339 341 342 340 341 340 337 336 335 334 332 335 337 335 331 324 322
237 237 238 237 240 243 245 250 253 252 254 260 262 262 264 270 274 278 282 287 293 299 303 306 310 314 317 320 322 324 325 329 331 330 333 336 336 336 336 338 338 335 334 334 332 330 333 336 336 334 325 318
238 241 243 243 247 250 249 252 254 254 256 261 263 261 262 266 272 277 283 290 296 301 303 305 306 309 310 312 315 318 320 324 326 325 328 331 331 331 331 333 334 333 332 332 332 330 332 334 334 333 326 318
240 244 248 250 254 256 254 253 255 257 257 259 261 262 263 267 271 277 285 291 296 299 300 302 302 304 306 308 312 314 316 320 321 320 322 325 324 325 327 328 329 329 328 329 329 329 330 331 333 330 325 320
244 247 252 255 256 257 256 255 257 258 258 258 260 263 267 271 275 278 283 288 291 294 295 297 299 302 304 307 309 310 313 316 317 317 319 320 320 321 324 326 328 328 327 327 326 327 327 328 329 326 323 321
247 251 253 254 255 255 256 257 258 258 258 261 263 266 269 272 276 275 278 282 284 288 291 294 297 300 303 305 306 308 311 313 313 315 317 319 320 321 323 324 327 330 328 326 325 325 325 325 324 321 320 320
247 250 251 252 254 255 258 259 258 259 260 264 265 267 269 271 273 272 274 276 279 284 287 292 296 299 302 303 305 308 310 310 310 313 316 319 321 321 323 325 326 329 328 324 323 323 323 323 321 318 317 316
247 247 247 249 252 254 257 257 258 259 259 262 263 266 268 270 271 270 271 274 277 281 284 289 294 297 300 302 304 307 309 309 311 314 316 318 320 321 322 324 326 327 326 322 321 322 321 321 319 316 315 312
244 243 244 246 248 251 253 254 255 254 254 256 259 263 265 268 271 268 269 273 276 280 282 287 292 295 298 300 303 306 308 309 310 312 313 315 317 319 321 322 325 327 323 320 319 319 319 319 318 317 315 308
241 241 241 243 248 250 251 251 248 245 247 252 256 260 262 266 269 268 268 273 278 280 281 285 289 293 296 298 301 303 304 306 307 307 308 311 314 317 320 319 321 325 323 318 317 316 316 317 318 319 316 307
241 240 241 244 246 247 249 250 247 244 247 251 255 258 261 264 267 270 272 277 280 280 280 282 286 291 293 293 295 297 299 301 302 305 307 309 312 314 318 318 320 325 323 318 316 314 315 318 321 321 315 306
239 240 242 244 246 249 253 253 251 250 250 252 255 257 261 264 267 270 274 278 280 279 278 279 284 288 289 287 288 290 293 296 298 301 303 305 307 308 312 316 320 324 322 323 324 319 316 318 322 325 317 305
241 242 244 248 252 257 259 258 256 257 257 257 257 258 260 263 266 268 271 275 276 275 275 276 280 282 281 280 281 284 287 290 293 295 297 298 301 303 305 309 315 320 322 329 330 319 313 315 324 326 311 293
242 245 248 253 258 261 262 261 258 259 259 259 258 258 259 261 263 264 267 270 271 272 272 274 277 277 277 277 277 279 281 283 287 290 292 294 296 299 301 305 310 313 311 315 322 320 306 315 335 330 305 260
245 249 253 255 258 258 259 258 256 256 257 257 257 257 257 258 258 259 263 266 268 269 271 273 274 275 275 275 274 276 278 282 286 288 291 292 293 293 295 298 302 301 297 303 320 328 286 318 338 298 321 315
246 248 249 248 248 249 251 253 251 251 253 253 253 255 256 257 257 259 261 263 266 268 271 272 274 275 276 276 277 277 278 280 283 286 289 290 289 287 285 284 286 288 289 294 298 277 259 309 318 264 336 333
245 245 245 242 239 242 244 247 249 249 253 254 254 257 259 259 258 259 261 263 266 269 272 275 278 278 278 279 279 279 280 280 281 284 286 286 285 283 280 277 276 279 284 292 292 276 256 253 254 274 331 344
245 244 243 241 241 245 246 247 252 255 257 258 257 258 258 258 257 258 260 264 267 270 273 277 278 278 279 278 278 279 281 282 283 284 284 285 283 281 277 271 268 274 283 292 289 275 255 249 252 266 282 273